Temp
4 4 4 4 4 4 4 4 4 4 4 4 5 5 5 5 5 5 5 5 5 5 5 5 5 5 5 5 6 6 6 6 6 5 5 6 6 6 7 7 7 7 7 6 7 7 7 7 7 7 8 8 8 8 8 8 8 8 7 8 8 8 7 7 7 7 7 8 8
4 4 4 4 4 4 4 4 4 4 4 4 4 4 4 4 5 5 5 5 5 5 5 5 5 5 5 5 5 5 6 6 5 5 5 5 5 5 6 6 6 7 7 7 6 6 6 6 6 6 7 7 8 8 8 8 8 7 7 7 7 7 7 7 7 7 7 7 7
4 4 4 4 4 4 4 4 4 4 4 4 4 4 4 4 4 4 4 4 4 5 5 5 5 5 5 5 5 5 5 5 5 5 5 5 5 5 5 5 6 6 6 7 7 6 6 6 6 6 6 7 7 8 8 8 8 7 7 7 7 7 7 7 7 7 7 7 7
4 4 4 4 4 4 4 4 4 4 4 4 4 4 4 4 4 4 4 4 4 4 5 5 5 5 5 5 5 5 5 5 5 5 5 5 5 5 5 5 5 6 6 6 6 6 6 6 6 6 6 6 7 7 8 8 8 7 7 7 7 7 7 7 7 7 7 7 6
4 4 4 4 4 4 4 4 4 4 4 4 4 4 4 4 4 4 4 4 4 4 4 4 5 5 5 5 5 5 4 4 4 4 5 5 5 5 5 5 5 5 5 5 5 6 6 6 6 6 6 6 6 6 7 7 7 7 7 7 7 7 7 7 7 7 7 6 6
4 4 4 4 4 4 4 4 4 4 4 4 4 4 4 4 4 4 4 4 4 4 4 4 4 4 4 5 5 5 4 4 4 4 4 4 4 5 5 5 5 5 5 5 5 5 5 5 5 5 5 6 6 6 6 6 7 7 7 7 7 7 7 7 7 7 7 7 6
4 4 4 4 4 4 4 4 4 4 4 4 4 4 4 4 4 4 4 4 4 4 4 4 4 4 4 4 4 4 4 4 4 4 4 4 4 4 4 4 4 4 4 4 4 4 4 4 4 4 5 5 6 6 6 6 6 6 6 7 7 7 7 7 7 7 7 7 7
4 4 4 4 4 4 4 4 4 4 4 3 3 3 3 3 3 3 4 4 4 4 4 4 4 4 4 4 4 4 4 4 4 4 4 4 4 4 4 4 4 4 4 3 3 3 3 3 3 4 4 5 5 5 6 5 5 5 6 6 7 7 6 6 7 7 7 7 7
4 3 3 3 3 3 3 3 3 3 3 3 3 3 3 3 3 3 3 3 4 4 4 4 4 4 4 4 4 4 4 4 4 4 4 4 4 4 4 4 4 3 3 3 2 2 2 3 3 3 4 4 4 4 5 5 5 5 5 5 6 6 6 6 6 7 7 7 6
3 3 3 3 3 3 3 3 3 3 3 3 3 3 3 3 3 3 3 3 3 3 3 3 3 3 3 4 4 4 4 4 4 4 4 3 3 3 3 3 3 3 3 2 2 2 2 2 3 3 3 3 4 4 4 4 4 4 4 5 5 6 6 6 6 6 6 6 6
3 3 3 3 3 3 3 3 3 3 3 3 3 3 3 3 3 3 3 3 3 3 3 3 3 3 3 3 3 3 3 3 3 3 3 3 3 3 3 3 3 3 3 2 2 2 2 3 3 2 3 3 3 3 3 4 4 4 4 4 5 5 6 6 6 6 6 6 6
3 3 3 3 3 3 3 3 3 3 3 3 3 3 3 3 3 3 3 3 3 3 3 3 3 3 3 3 3 3 3 3 3 3 3 3 3 3 3 3 3 2 2 2 2 2 2 2 3 3 2 2 3 3 3 3 4 3 3 4 4 5 5 6 6 6 6 6 6
3 3 3 3 3 3 3 3 3 3 3 3 3 3 3 3 3 3 3 3 3 3 2 2 2 2 2 2 2 2 2 2 2 2 2 2 2 2 2 2 2 2 2 2 2 2 2 2 2 2 2 2 2 3 3 3 3 3 3 3 4 4 5 5 6 6 6 6 6
3 3 3 3 3 3 3 3 3 3 3 3 3 3 3 3 3 3 3 3 2 2 2 2 2 2 1 1 1 1 1 2 2 2 2 2 2 2 2 2 2 2 2 2 2 1 2 2 2 2 2 2 2 2 3 3 3 3 3 3 4 4 4 5 5 6 6 5 5
3 3 3 3 3 3 3 3 3 3 3 3 3 3 3 3 2 2 2 2 2 2 2 2 1 1 1 1 1 1 1 1 1 1 1 1 1 1 1 1 1 2 2 2 1 1 2 2 2 2 2 2 2 2 2 3 3 3 3 3 3 4 4 5 5 5 5 5 5
2 2 2 2 2 2 2 2 2 2 3 2 2 2 2 2 2 2 2 2 2 2 1 1 1 1 1 1 1 0 0 0 0 0 0 0 0 0 1 1 1 1 1 1 1 2 2 2 2 2 2 2 2 2 2 2 3 3 3 3 3 3 4 4 5 5 5 5 5
2 2 2 2 2 2 2 2 2 2 2 2 2 2 2 2 2 2 2 1 1 1 1 1 1 0 0 0 0 0 -0 -0 -0 -0 -0 -0 -0 -0 0 1 1 1 1 1 2 2 2 2 2 2 2 2 2 2 2 2 2 2 2 2 2 3 3 4 4 5 5 5 5
2 2 2 2 2 2 2 2 2 2 2 2 2 2 2 2 2 1 1 1 1 1 1 0 0 0 -0 -0 -0 -0 -1 -1 -1 -1 -1 -1 -1 -0 -0 0 1 1 1 1 1 2 2 2 2 2 2 2 2 2 2 2 2 2 2 2 2 2 3 3 4 4 4 4 4
2 2 2 2 2 2 2 2 2 2 2 2 2 2 1 1 1 1 1 1 1 0 0 0 0 -0 -0 -0 -1 -1 -1 -1 -1 -1 -1 -1 -1 -1 -0 0 0 1 1 1 1 1 1 2 2 2 2 2 1 1 1 2 2 2 2 1 2 2 2 2 3 3 4 4 4
2 2 2 2 2 2 2 2 2 2 2 1 1 1 1 1 1 1 1 1 0 0 0 0 -0 -0 -1 -1 -1 -1 -1 -1 -1 -1 -1 -1 -1 -1 -1 -0 0 0 1 1 1 1 1 1 1 1 1 1 1 1 1 1 1 1 1 1 1 1 2 2 2 3 3 3 3
2 2 2 2 2 2 2 2 1 1 1 1 1 1 1 1 1 1 1 0 0 0 0 -0 -0 -1 -1 -1 -1 -1 -1 -1 -1 -2 -2 -1 -1 -1 -1 -0 0 0 1 1 1 1 1 1 1 1 1 1 1 1 1 1 1 1 1 1 1 1 1 1 1 2 2 2 2
2 2 2 1 1 1 1 1 1 1 1 1 1 1 1 1 1 0 0 0 0 0 -0 -0 -0 -1 -1 -1 -1 -1 -2 -2 -2 -2 -2 -2 -2 -1 -1 -1 -0 -0 0 0 1 1 1 1 1 1 1 1 1 1 0 0 0 0 0 0 0 0 0 1 1 1 1 1 1
1 1 1 1 1 1 1 1 1 1 1 1 1 1 1 0 0 0 0 0 0 -0 -0 -0 -1 -1 -1 -1 -1 -2 -2 -2 -2 -2 -2 -2 -2 -2 -2 -1 -1 -1 -0 -0 0 1 1 1 1 1 1 1 1 0 0 -0 -0 -0 -0 -0 -0 -0 0 0 0 0 0 0 0
1 1 1 1 1 1 1 1 1 1 1 1 0 0 0 0 0 0 0 -0 -0 -0 -0 -1 -1 -1 -1 -2 -2 -2 -2 -2 -2 -2 -2 -2 -2 -2 -2 -2 -1 -1 -1 -0 0 0 1 1 1 1 1 0 0 0 -0 -0 -0 -0 -0 -0 -0 -0 -0 -0 -0 -0 -0 -0 -1
1 1 1 1 1 1 1 0 0 0 0 0 0 0 0 0 -0 -0 -0 -0 -0 -1 -1 -1 -1 -1 -2 -2 -2 -2 -3 -3 -3 -3 -2 -2 -2 -2 -2 -2 -1 -1 -1 -0 0 0 1 1 1 1 1 0 0 -0 -0 -0 -1 -1 -1 -1 -1 -1 -1 -1 -1 -1 -1 -1 -1
1 1 1 1 0 0 0 0 0 0 0 0 -0 -0 -0 -0 -0 -0 -1 -1 -1 -1 -1 -2 -2 -2 -2 -2 -3 -3 -3 -3 -3 -3 -3 -2 -2 -2 -2 -2 -1 -1 -1 -0 -0 0 1 1 1 1 1 0 -0 -0 -0 -1 -1 -1 -1 -1 -1 -1 -1 -1 -2 -2 -2 -2 -1
1 0 0 0 0 0 0 -0 -0 -0 -0 -0 -0 -0 -0 -1 -1 -1 -1 -1 -2 -2 -2 -2 -2 -2 -3 -3 -3 -3 -3 -3 -3 -3 -3 -3 -3 -2 -2 -2 -1 -1 -1 -1 -0 0 1 1 1 1 0 0 -0 -0 -1 -1 -1 -1 -1 -1 -1 -1 -1 -2 -2 -2 -2 -2 -2
0 0 0 0 0 -0 -0 -0 -0 -0 -0 -1 -1 -1 -1 -1 -1 -1 -2 -2 -2 -2 -2 -3 -3 -3 -3 -3 -3 -3 -3 -3 -3 -3 -3 -3 -3 -3 -2 -2 -1 -1 -1 -1 -0 0 1 1 1 1 0 -0 -0 -1 -1 -1 -1 -1 -2 -2 -2 -2 -2 -2 -2 -2 -2 -2 -2
0 0 -0 -0 -0 -0 -0 -1 -1 -1 -1 -1 -1 -1 -1 -1 -2 -2 -2 -2 -3 -3 -3 -3 -3 -3 -3 -3 -3 -3 -3 -3 -3 -3 -3 -3 -3 -3 -3 -2 -2 -2 -1 -1 -1 0 1 1 1 0 -0 -0 -1 -1 -1 -1 -2 -2 -2 -2 -2 -2 -2 -2 -2 -2 -2 -2 -2
-0 -0 -0 -0 -1 -1 -1 -1 -1 -1 -1 -1 -1 -2 -2 -2 -2 -2 -3 -3 -3 -3 -3 -3 -3 -3 -3 -3 -4 -4 -4 -4 -4 -4 -4 -4 -3 -3 -3 -2 -2 -2 -2 -1 -0 0 1 1 0 0 -0 -1 -1 -1 -1 -2 -2 -2 -2 -2 -2 -2 -2 -2 -2 -2 -2 -2 -2
-0 -0 -1 -1 -1 -1 -1 -1 -1 -1 -2 -2 -2 -2 -2 -3 -3 -3 -3 -3 -3 -3 -4 -4 -4 -4 -4 -4 -4 -4 -4 -4 -4 -4 -4 -4 -3 -3 -3 -3 -2 -2 -1 -1 -0 0 0 0 0 -0 -1 -1 -1 -1 -2 -2 -2 -2 -2 -2 -2 -2 -2 -2 -2 -2 -2 -2 -2
-1 -1 -1 -1 -1 -1 -2 -2 -2 -2 -2 -2 -2 -3 -3 -3 -3 -3 -3 -4 -4 -4 -4 -4 -4 -4 -4 -4 -4 -4 -4 -4 -4 -4 -4 -4 -3 -3 -3 -3 -2 -2 -1 -1 -0 0 0 0 -0 -1 -1 -1 -2 -2 -2 -2 -2 -2 -2 -2 -2 -2 -2 -2 -2 -2 -2 -2 -2
-1 -1 -1 -2 -2 -2 -2 -2 -2 -3 -3 -3 -3 -3 -3 -4 -4 -4 -4 -4 -4 -4 -4 -4 -4 -4 -4 -4 -4 -4 -4 -4 -4 -4 -4 -4 -3 -3 -3 -2 -2 -1 -1 -1 -0 0 0 -0 -0 -1 -1 -2 -2 -2 -2 -2 -2 -2 -2 -2 -3 -3 -3 -3 -3 -2 -2 -2 -2
-2 -2 -2 -2 -2 -3 -3 -3 -3 -3 -3 -4 -4 -4 -4 -4 -4 -4 -4 -4 -4 -4 -4 -4 -4 -4 -4 -4 -4 -4 -4 -4 -4 -4 -4 -3 -3 -3 -2 -2 -1 -1 -1 -0 -0 -0 -0 -0 -1 -1 -2 -2 -2 -2 -2 -2 -2 -2 -3 -3 -3 -3 -3 -3 -3 -2 -2 -2 -2
-2 -3 -3 -3 -3 -3 -4 -4 -4 -4 -4 -4 -4 -4 -5 -5 -5 -5 -5 -5 -5 -5 -5 -5 -5 -5 -5 -4 -4 -4 -4 -4 -4 -4 -3 -3 -3 -2 -2 -2 -1 -1 -1 -0 -0 -0 -0 -1 -1 -2 -2 -2 -2 -2 -2 -2 -3 -3 -3 -4 -4 -4 -4 -3 -3 -3 -2 -2 -2
-3 -3 -4 -4 -4 -4 -4 -4 -5 -5 -5 -5 -5 -5 -5 -5 -5 -5 -5 -5 -5 -5 -5 -5 -5 -5 -5 -5 -4 -4 -4 -4 -4 -4 -3 -3 -3 -2 -2 -1 -1 -1 -1 -1 -1 -1 -1 -1 -2 -2 -2 -2 -2 -2 -2 -3 -3 -3 -4 -4 -4 -4 -4 -4 -3 -3 -2 -2 -2
-4 -4 -5 -5 -5 -5 -5 -5 -5 -5 -5 -6 -6 -6 -6 -6 -6 -5 -5 -5 -5 -5 -5 -5 -5 -5 -5 -5 -4 -4 -4 -4 -4 -3 -3 -3 -2 -2 -2 -1 -1 -1 -1 -1 -1 -1 -1 -2 -2 -2 -2 -2 -2 -3 -3 -3 -3 -4 -4 -4 -4 -4 -4 -4 -3 -3 -3 -2 -2
-5 -5 -5 -5 -6 -6 -6 -6 -6 -6 -6 -6 -6 -6 -6 -6 -6 -6 -6 -5 -5 -5 -5 -5 -5 -5 -5 -5 -4 -4 -4 -3 -3 -3 -3 -2 -2 -2 -1 -1 -1 -1 -1 -1 -1 -1 -1 -2 -2 -3 -3 -2 -2 -3 -3 -3 -4 -4 -4 -4 -4 -4 -4 -4 -3 -3 -3 -2 -2
-6 -6 -6 -6 -6 -6 -6 -6 -6 -6 -6 -6 -6 -6 -6 -6 -6 -6 -6 -6 -5 -5 -5 -5 -5 -5 -5 -4 -4 -4 -4 -3 -3 -3 -3 -2 -2 -2 -1 -1 -1 -1 -1 -1 -1 -1 -2 -2 -3 -3 -3 -2 -3 -3 -3 -4 -4 -4 -4 -4 -4 -4 -4 -4 -4 -3 -3 -3 -2
-7 -7 -7 -7 -7 -7 -7 -7 -7 -7 -7 -7 -7 -7 -6 -6 -6 -6 -6 -6 -6 -6 -6 -5 -5 -5 -5 -4 -4 -4 -3 -3 -3 -2 -2 -2 -2 -1 -1 -1 -1 -1 -2 -1 -1 -2 -2 -3 -3 -3 -3 -3 -3 -3 -3 -4 -4 -4 -4 -4 -4 -4 -4 -4 -4 -4 -3 -3 -2
-7 -7 -7 -7 -7 -7 -7 -7 -7 -7 -7 -7 -7 -7 -7 -7 -7 -6 -6 -6 -6 -6 -6 -5 -5 -5 -5 -4 -4 -4 -3 -3 -2 -2 -2 -2 -2 -1 -1 -1 -1 -2 -2 -2 -2 -2 -2 -3 -3 -3 -3 -3 -3 -3 -4 -4 -4 -4 -4 -4 -4 -4 -4 -4 -4 -4 -4 -3 -3
Height
1469 1469 1468 1467 1466 1465 1464 1463 1462 1461 1461 1460 1459 1458 1457 1456 1455 1454 1453 1453 1452 1450 1450 1449 1448 1447 1447 1446 1446 1445 1445 1445 1444 1443 1442 1441 1440 1440 1439 1439 1438 1438 1437 1437 1436 1436 1436 1435 1435 1435 1434 1434 1433 1433 1432 1433 1433 1434 1435 1435 1435 1436 1437 1437 1437 1438 1439 1440 1440
1468 1467 1466 1466 1465 1464 1463 1462 1461 1460 1460 1459 1458 1457 1456 1455 1454 1453 1452 1451 1450 1449 1448 1447 1446 1445 1445 1444 1444 1444 1443 1442 1442 1441 1440 1439 1438 1437 1436 1436 1435 1435 1435 1435 1434 1434 1434 1433 1433 1433 1432 1431 1431 1430 1430 1430 1431 1431 1432 1432 1433 1433 1434 1435 1435 1435 1436 1436 1437
1467 1466 1465 1464 1464 1463 1462 1461 1460 1459 1458 1457 1456 1455 1454 1453 1452 1451 1450 1449 1448 1447 1447 1445 1445 1444 1443 1442 1442 1441 1441 1440 1440 1439 1438 1437 1436 1435 1434 1433 1432 1432 1431 1431 1431 1431 1431 1431 1430 1430 1430 1429 1429 1428 1427 1427 1428 1429 1429 1430 1430 1431 1431 1431 1432 1433 1433 1433 1433
1465 1465 1464 1463 1462 1461 1460 1460 1458 1457 1456 1455 1455 1454 1452 1451 1450 1449 1448 1447 1446 1445 1445 1444 1443 1442 1441 1441 1440 1439 1439 1438 1438 1437 1436 1435 1434 1433 1432 1431 1430 1429 1428 1428 1427 1427 1427 1428 1428 1427 1426 1426 1426 1425 1425 1425 1425 1426 1426 1427 1428 1429 1429 1429 1429 1430 1430 1430 1430
1464 1463 1462 1461 1460 1460 1459 1458 1457 1456 1455 1454 1453 1451 1450 1450 1449 1447 1446 1445 1445 1444 1443 1442 1441 1440 1440 1439 1438 1437 1436 1436 1435 1435 1434 1433 1432 1430 1430 1429 1428 1427 1426 1425 1425 1424 1424 1424 1424 1424 1424 1423 1423 1422 1422 1422 1423 1423 1423 1424 1426 1426 1426 1426 1426 1427 1428 1428 1429
1462 1461 1460 1460 1459 1458 1457 1456 1455 1454 1453 1452 1451 1450 1449 1448 1447 1445 1445 1444 1442 1442 1441 1440 1439 1438 1438 1437 1436 1435 1434 1434 1433 1432 1431 1430 1429 1429 1427 1426 1425 1424 1424 1423 1422 1421 1421 1420 1420 1420 1420 1421 1420 1419 1419 1419 1419 1419 1420 1421 1423 1424 1424 1424 1424 1424 1425 1427 1428
1460 1460 1459 1458 1457 1456 1455 1454 1453 1452 1451 1450 1449 1448 1446 1445 1445 1444 1442 1441 1440 1440 1439 1438 1437 1436 1435 1435 1434 1433 1432 1431 1430 1430 1429 1428 1427 1426 1425 1424 1423 1422 1421 1420 1420 1419 1418 1418 1417 1416 1417 1418 1418 1417 1417 1417 1416 1416 1417 1417 1419 1420 1422 1421 1421 1421 1422 1424 1426
1459 1458 1457 1456 1455 1454 1453 1452 1451 1450 1449 1448 1447 1446 1445 1444 1442 1441 1440 1439 1438 1437 1436 1435 1435 1434 1433 1433 1432 1431 1430 1429 1428 1427 1426 1425 1424 1424 1423 1423 1421 1420 1418 1417 1417 1416 1415 1415 1414 1413 1413 1414 1415 1415 1415 1414 1414 1414 1414 1414 1415 1417 1418 1419 1418 1418 1419 1421 1422
1457 1456 1455 1454 1453 1452 1451 1450 1449 1448 1447 1446 1445 1444 1442 1441 1440 1440 1438 1437 1436 1435 1435 1434 1433 1432 1431 1430 1430 1429 1428 1427 1426 1425 1424 1423 1422 1421 1420 1420 1419 1418 1416 1415 1414 1413 1412 1412 1411 1410 1410 1410 1411 1411 1412 1412 1412 1412 1412 1412 1412 1413 1415 1415 1415 1415 1416 1418 1419
1455 1454 1453 1452 1451 1450 1449 1448 1447 1446 1445 1444 1442 1441 1440 1439 1438 1437 1436 1435 1434 1433 1432 1431 1430 1430 1429 1428 1427 1426 1425 1425 1424 1423 1422 1421 1420 1419 1418 1417 1417 1415 1414 1413 1412 1411 1410 1410 1408 1407 1407 1407 1408 1408 1409 1409 1410 1410 1410 1410 1410 1410 1411 1412 1412 1413 1414 1415 1416
1454 1452 1451 1450 1449 1448 1447 1446 1445 1444 1443 1441 1440 1439 1438 1437 1436 1435 1434 1433 1432 1431 1430 1429 1428 1427 1426 1425 1424 1423 1423 1422 1421 1420 1420 1419 1418 1417 1416 1415 1414 1413 1412 1410 1410 1410 1409 1407 1405 1404 1404 1404 1405 1405 1406 1406 1407 1407 1408 1408 1408 1409 1409 1409 1410 1411 1411 1412 1413
1452 1450 1450 1448 1447 1446 1445 1444 1443 1441 1440 1439 1438 1437 1436 1435 1434 1433 1432 1431 1430 1428 1427 1426 1425 1424 1423 1422 1421 1421 1420 1419 1419 1418 1417 1416 1415 1415 1414 1413 1412 1411 1410 1408 1408 1407 1407 1405 1403 1402 1401 1401 1402 1403 1403 1404 1405 1405 1405 1405 1406 1406 1406 1406 1407 1408 1409 1410 1411
1450 1449 1447 1446 1445 1444 1443 1442 1440 1439 1438 1437 1436 1435 1434 1433 1431 1431 1430 1428 1427 1426 1425 1424 1423 1421 1420 1419 1419 1418 1417 1416 1416 1415 1414 1413 1413 1412 1411 1410 1409 1409 1407 1406 1405 1405 1404 1403 1401 1400 1399 1399 1399 1400 1400 1401 1402 1402 1403 1403 1404 1404 1404 1404 1405 1405 1406 1407 1408
1448 1446 1445 1444 1443 1442 1441 1440 1438 1437 1436 1435 1433 1432 1431 1430 1429 1428 1427 1426 1425 1423 1422 1421 1420 1419 1417 1416 1415 1415 1414 1413 1412 1411 1411 1410 1409 1408 1408 1407 1406 1406 1405 1403 1402 1402 1401 1400 1398 1397 1396 1396 1396 1397 1398 1399 1399 1400 1400 1400 1401 1402 1402 1402 1402 1402 1403 1403 1404
1445 1444 1443 1442 1441 1440 1438 1437 1436 1435 1433 1432 1431 1430 1429 1427 1426 1425 1424 1423 1422 1420 1419 1418 1417 1415 1415 1414 1412 1411 1410 1410 1409 1408 1407 1406 1405 1405 1404 1403 1403 1402 1401 1400 1400 1399 1398 1396 1395 1394 1394 1394 1394 1395 1395 1396 1396 1397 1397 1397 1398 1399 1399 1400 1400 1400 1400 1400 1400
1443 1442 1441 1440 1438 1437 1436 1435 1433 1432 1431 1430 1428 1427 1426 1425 1424 1423 1421 1420 1419 1417 1416 1415 1414 1412 1411 1410 1409 1408 1407 1406 1405 1404 1403 1402 1401 1401 1400 1399 1399 1398 1398 1398 1397 1395 1394 1393 1392 1391 1391 1391 1391 1391 1392 1393 1394 1394 1394 1395 1395 1396 1396 1396 1397 1397 1397 1397 1397
1441 1440 1439 1437 1436 1435 1433 1432 1431 1430 1428 1427 1426 1425 1424 1422 1421 1420 1419 1417 1416 1415 1413 1412 1411 1410 1408 1407 1405 1405 1404 1402 1401 1401 1400 1399 1398 1397 1397 1396 1395 1395 1394 1394 1393 1392 1391 1390 1389 1388 1388 1388 1388 1389 1389 1390 1390 1391 1391 1392 1392 1393 1393 1394 1394 1395 1395 1395 1395
1439 1437 1436 1435 1434 1432 1431 1430 1428 1427 1425 1424 1423 1422 1420 1419 1418 1417 1415 1414 1413 1412 1410 1409 1408 1406 1405 1404 1402 1401 1400 1399 1398 1397 1396 1395 1395 1394 1393 1392 1391 1391 1391 1390 1390 1390 1388 1387 1386 1385 1385 1385 1385 1385 1386 1387 1387 1388 1389 1389 1390 1390 1390 1391 1391 1391 1392 1392 1392
1436 1435 1434 1432 1431 1429 1428 1427 1425 1424 1422 1421 1420 1419 1417 1416 1415 1414 1412 1411 1410 1409 1407 1406 1405 1403 1402 1400 1399 1398 1397 1396 1395 1394 1392 1392 1391 1390 1390 1389 1388 1387 1387 1387 1387 1386 1385 1384 1383 1382 1382 1382 1382 1382 1383 1384 1384 1385 1385 1386 1387 1387 1388 1388 1389 1389 1389 1390 1390
1434 1432 1431 1430 1428 1427 1425 1424 1422 1421 1420 1418 1417 1415 1414 1413 1412 1410 1409 1408 1407 1406 1405 1403 1401 1400 1399 1397 1396 1395 1394 1393 1391 1390 1389 1388 1387 1386 1386 1385 1385 1384 1383 1383 1383 1382 1382 1381 1380 1380 1379 1379 1379 1380 1380 1380 1381 1382 1383 1383 1384 1385 1385 1386 1386 1387 1387 1387 1388
1431 1430 1428 1427 1425 1424 1422 1421 1420 1418 1416 1415 1414 1412 1411 1410 1409 1407 1406 1405 1404 1402 1401 1400 1398 1397 1395 1394 1393 1391 1390 1389 1388 1386 1385 1384 1383 1382 1382 1381 1381 1380 1379 1379 1379 1378 1378 1378 1377 1376 1376 1376 1376 1376 1377 1378 1379 1379 1380 1380 1381 1382 1383 1383 1384 1385 1385 1385 1386
1428 1427 1425 1424 1422 1421 1419 1418 1416 1415 1413 1412 1410 1409 1408 1406 1405 1404 1403 1402 1400 1399 1398 1396 1395 1393 1392 1390 1389 1388 1386 1385 1384 1382 1381 1380 1379 1378 1378 1377 1377 1376 1375 1375 1375 1375 1374 1374 1373 1373 1373 1373 1373 1374 1375 1375 1376 1376 1377 1377 1378 1379 1380 1381 1382 1383 1383 1384 1385
1426 1424 1423 1421 1420 1418 1416 1415 1413 1412 1410 1409 1407 1406 1405 1403 1402 1401 1400 1399 1397 1396 1395 1393 1391 1390 1389 1387 1385 1384 1382 1381 1380 1378 1377 1376 1375 1374 1374 1374 1373 1372 1371 1371 1371 1371 1371 1370 1370 1370 1370 1370 1370 1371 1372 1373 1373 1374 1374 1375 1375 1377 1378 1379 1380 1381 1382 1383 1384
1423 1421 1420 1418 1416 1415 1414 1412 1410 1409 1407 1406 1405 1403 1402 1400 1399 1398 1396 1395 1394 1393 1391 1390 1388 1387 1385 1384 1382 1380 1379 1377 1375 1374 1373 1372 1371 1370 1369 1369 1369 1368 1367 1367 1367 1367 1367 1367 1367 1367 1366 1366 1367 1368 1369 1370 1370 1371 1371 1372 1373 1374 1375 1377 1378 1379 1380 1381 1383
1420 1418 1417 1415 1414 1412 1411 1409 1408 1406 1405 1403 1402 1400 1399 1397 1396 1395 1393 1392 1390 1389 1388 1386 1385 1383 1381 1380 1378 1377 1375 1374 1372 1370 1369 1367 1366 1365 1365 1365 1364 1363 1363 1362 1362 1363 1363 1364 1363 1363 1363 1364 1364 1365 1366 1367 1368 1368 1369 1370 1370 1371 1373 1375 1376 1377 1379 1380 1382
1417 1415 1414 1412 1411 1409 1408 1406 1405 1403 1402 1400 1399 1397 1396 1394 1393 1391 1390 1388 1387 1385 1384 1383 1381 1380 1378 1376 1374 1373 1371 1370 1368 1366 1365 1363 1362 1361 1360 1360 1360 1359 1359 1358 1358 1358 1359 1359 1359 1359 1360 1360 1361 1362 1363 1364 1365 1366 1366 1367 1368 1369 1370 1372 1374 1375 1377 1379 1381
1414 1412 1410 1409 1408 1406 1405 1403 1402 1400 1399 1397 1395 1394 1392 1391 1389 1388 1386 1385 1383 1382 1380 1379 1378 1376 1375 1372 1370 1369 1367 1365 1364 1363 1361 1360 1358 1357 1356 1356 1356 1355 1355 1354 1354 1354 1355 1355 1355 1355 1356 1356 1357 1359 1360 1361 1362 1363 1364 1365 1365 1366 1368 1369 1371 1374 1376 1378 1380
1411 1409 1408 1406 1405 1403 1401 1400 1399 1397 1395 1394 1392 1391 1389 1388 1386 1384 1383 1381 1380 1378 1376 1375 1374 1372 1371 1369 1367 1365 1363 1362 1360 1359 1357 1356 1355 1354 1354 1353 1353 1352 1351 1351 1351 1350 1350 1351 1351 1352 1352 1353 1355 1356 1357 1358 1360 1361 1362 1363 1364 1365 1366 1367 1369 1371 1374 1376 1379
1408 1406 1405 1403 1401 1400 1398 1397 1395 1394 1392 1391 1389 1387 1386 1384 1382 1381 1379 1377 1376 1374 1373 1371 1370 1369 1367 1365 1363 1361 1359 1358 1356 1355 1353 1352 1351 1350 1349 1349 1349 1348 1347 1347 1348 1347 1347 1347 1348 1348 1349 1350 1352 1353 1354 1355 1356 1358 1359 1361 1362 1363 1364 1366 1368 1370 1371 1374 1376
1405 1403 1401 1400 1398 1396 1395 1394 1392 1390 1389 1387 1386 1384 1382 1380 1379 1377 1375 1374 1372 1370 1369 1368 1366 1365 1363 1361 1359 1357 1355 1353 1351 1350 1349 1348 1346 1345 1345 1345 1344 1344 1344 1344 1344 1344 1344 1344 1345 1345 1347 1348 1349 1350 1351 1352 1354 1355 1357 1359 1360 1361 1363 1364 1365 1367 1369 1371 1374
1402 1400 1399 1397 1395 1393 1392 1390 1389 1387 1386 1384 1382 1380 1379 1377 1375 1374 1372 1370 1369 1367 1365 1364 1362 1360 1359 1357 1355 1353 1350 1349 1347 1346 1345 1343 1342 1341 1340 1340 1340 1340 1340 1340 1341 1341 1341 1341 1342 1343 1344 1345 1346 1348 1349 1350 1352 1354 1355 1357 1359 1360 1361 1362 1363 1365 1366 1369 1372
1400 1398 1396 1394 1392 1390 1389 1387 1386 1384 1382 1380 1379 1377 1375 1373 1372 1370 1369 1367 1365 1363 1362 1360 1358 1356 1354 1352 1350 1349 1346 1344 1342 1341 1340 1340 1338 1337 1336 1336 1336 1335 1335 1336 1337 1338 1338 1339 1339 1340 1342 1344 1345 1346 1347 1349 1350 1353 1355 1356 1358 1359 1360 1360 1361 1363 1365 1368 1370
1397 1395 1393 1391 1389 1387 1386 1384 1382 1380 1379 1377 1375 1374 1372 1370 1368 1366 1365 1363 1361 1360 1358 1356 1354 1352 1350 1348 1346 1344 1342 1340 1338 1337 1336 1335 1335 1334 1333 1332 1331 1331 1332 1333 1334 1335 1335 1335 1336 1338 1340 1343 1344 1345 1347 1348 1350 1353 1355 1357 1358 1358 1358 1359 1360 1362 1365 1367 1370
1394 1392 1390 1388 1386 1384 1382 1380 1379 1377 1375 1373 1371 1370 1368 1366 1364 1362 1360 1359 1357 1356 1354 1352 1350 1348 1346 1344 1342 1340 1337 1335 1334 1333 1332 1331 1331 1330 1329 1328 1327 1328 1328 1329 1330 1330 1331 1332 1334 1336 1339 1341 1343 1344 1346 1348 1350 1353 1355 1357 1357 1358 1358 1358 1359 1361 1364 1367 1370
1391 1389 1387 1385 1383 1381 1379 1377 1375 1373 1372 1370 1367 1365 1364 1362 1360 1358 1356 1355 1353 1351 1350 1348 1346 1344 1342 1340 1338 1336 1334 1332 1330 1329 1328 1328 1327 1326 1325 1324 1324 1324 1325 1325 1326 1326 1327 1329 1332 1335 1337 1340 1341 1343 1345 1347 1350 1352 1354 1356 1357 1357 1357 1358 1360 1362 1365 1368 1370
1389 1386 1384 1382 1380 1378 1376 1374 1372 1370 1368 1366 1364 1361 1360 1358 1356 1354 1353 1351 1350 1347 1345 1343 1342 1340 1338 1336 1334 1332 1330 1328 1327 1325 1325 1324 1323 1322 1321 1320 1321 1321 1321 1322 1322 1323 1325 1328 1330 1333 1336 1338 1340 1342 1345 1347 1350 1352 1353 1355 1356 1356 1357 1358 1360 1363 1365 1368 1371
1385 1383 1381 1379 1377 1375 1373 1370 1369 1366 1364 1362 1360 1358 1356 1354 1352 1350 1349 1348 1346 1344 1341 1339 1338 1336 1334 1332 1330 1328 1326 1325 1323 1322 1321 1320 1320 1319 1318 1318 1318 1318 1318 1319 1320 1321 1324 1326 1329 1332 1334 1337 1339 1341 1344 1347 1349 1351 1353 1354 1355 1356 1357 1359 1361 1364 1367 1370 1372
1383 1381 1379 1376 1374 1372 1369 1367 1365 1363 1360 1358 1356 1354 1352 1350 1349 1347 1345 1345 1343 1340 1337 1335 1333 1331 1329 1328 1326 1324 1322 1321 1320 1318 1317 1316 1316 1316 1316 1315 1315 1315 1315 1316 1318 1320 1323 1325 1328 1330 1333 1335 1338 1340 1343 1346 1348 1350 1352 1354 1355 1357 1359 1360 1363 1365 1368 1370 1373
1380 1378 1376 1374 1371 1369 1366 1364 1362 1360 1357 1355 1353 1350 1349 1347 1345 1344 1342 1341 1339 1337 1334 1331 1329 1327 1325 1324 1323 1320 1319 1317 1315 1314 1313 1313 1313 1313 1313 1312 1312 1313 1314 1315 1317 1320 1322 1325 1327 1330 1332 1334 1337 1340 1342 1345 1347 1350 1352 1353 1355 1357 1359 1361 1364 1366 1369 1372 1374
1377 1375 1373 1371 1368 1366 1363 1361 1358 1356 1354 1352 1350 1347 1345 1344 1342 1340 1339 1337 1335 1333 1330 1328 1325 1323 1322 1321 1320 1317 1315 1313 1311 1310 1310 1310 1310 1310 1310 1310 1310 1311 1313 1315 1317 1319 1321 1324 1326 1329 1331 1334 1336 1339 1341 1344 1346 1349 1351 1353 1355 1357 1360 1362 1365 1367 1370 1372 1375
1375 1372 1370 1368 1365 1363 1360 1358 1355 1353 1351 1349 1346 1344 1342 1340 1338 1336 1335 1333 1331 1330 1327 1325 1322 1320 1319 1318 1316 1315 1312 1309 1307 1307 1307 1307 1307 1308 1308 1307 1308 1310 1312 1314 1316 1318 1320 1323 1326 1328 1331 1333 1335 1338 1340 1343 1346 1349 1351 1353 1355 1357 1360 1363 1365 1367 1370 1372 1375
Wind_Speed
17 17 18 19 20 20 20 20 20 20 20 21 21 22 22 23 24 24 24 24 25 25 25 25 26 27 28 28 27 27 26 27 27 28 30 32 34 36 38 39 39 38 37 36 34 32 32 33 35 39 42 44 45 45 44 41 36 33 33 34 34 34 35 36 38 39 40 38 35
18 18 19 20 20 20 20 20 20 20 21 21 22 23 23 24 25 25 25 25 25 26 26 27 27 28 29 30 30 29 29 29 29 30 31 32 34 36 38 39 40 40 40 40 39 37 36 35 37 39 42 45 47 48 48 44 38 33 32 34 35 36 37 37 39 41 42 42 39
19 19 20 20 20 20 20 21 21 21 22 22 23 23 24 24 25 25 26 26 26 27 27 27 28 29 29 30 31 31 31 32 33 33 34 35 36 37 39 41 42 43 43 43 43 41 39 37 37 39 42 45 47 49 50 49 42 36 33 33 35 37 39 40 41 43 44 44 42
20 20 20 20 21 21 21 22 23 23 23 23 24 24 24 25 25 26 26 26 27 27 27 27 28 29 30 31 32 32 33 33 34 35 36 37 38 40 41 42 43 43 44 44 44 43 41 39 37 37 39 42 46 48 50 51 47 42 37 33 34 36 38 40 41 42 43 43 43
20 20 21 21 22 22 23 23 24 24 24 24 25 25 25 25 25 26 26 26 27 27 27 28 29 29 30 32 33 33 33 33 33 34 36 37 38 39 40 41 42 43 44 44 43 43 42 41 40 39 38 39 42 46 49 50 50 48 45 39 37 36 38 39 39 39 39 41 41
21 21 22 22 23 24 24 24 25 25 25 25 26 26 26 26 26 26 26 27 28 28 28 29 30 30 31 32 32 33 33 33 33 34 34 35 36 38 40 42 43 44 44 43 42 42 42 43 43 42 40 39 40 42 45 48 49 49 49 48 43 40 39 39 39 39 39 40 42
22 22 23 24 24 25 25 25 25 25 26 26 26 26 26 26 27 27 28 28 28 29 29 29 29 30 30 31 32 32 33 34 34 34 34 35 35 36 38 41 43 44 45 45 44 43 44 45 45 45 43 40 39 39 41 44 47 48 49 50 48 45 42 42 42 42 43 44 44
23 24 24 25 25 25 25 26 26 26 26 26 27 27 27 27 28 28 28 28 28 28 28 28 29 29 30 30 31 32 32 33 34 34 34 34 34 35 36 39 42 44 46 46 46 45 45 46 47 46 45 42 40 38 39 41 44 46 48 48 49 47 46 45 45 46 46 47 47
24 25 25 26 26 26 26 26 26 27 27 27 27 27 28 28 28 29 29 28 28 28 28 28 28 29 29 30 30 31 32 33 33 33 34 35 36 36 37 38 41 43 45 45 45 44 45 45 46 47 46 44 42 40 38 38 40 43 46 47 47 47 47 47 47 47 48 49 48
25 26 26 27 27 27 27 27 27 27 27 28 28 28 28 28 28 28 28 28 28 28 28 28 29 29 29 30 31 32 32 33 33 33 33 33 34 35 36 37 39 41 43 43 43 42 43 44 45 46 47 46 44 42 40 38 38 40 43 45 45 45 45 47 47 48 49 49 48
26 27 27 27 27 27 28 28 28 28 28 28 28 28 28 28 28 28 28 28 29 29 29 29 29 30 31 31 32 32 33 33 33 33 33 33 34 34 35 35 36 38 40 41 42 42 42 44 45 46 46 46 45 43 41 39 38 39 41 43 43 43 44 46 47 48 49 49 48
27 27 27 28 28 28 28 29 29 29 28 29 29 29 29 29 29 29 29 29 29 30 30 30 30 31 32 32 33 33 33 34 34 34 35 35 35 34 34 33 34 35 38 41 42 42 43 45 46 46 46 47 46 44 42 40 38 38 40 41 43 44 44 46 47 47 48 48 47
27 28 28 28 29 29 29 29 29 29 29 29 29 29 29 29 29 29 29 30 30 30 31 31 31 32 33 33 33 34 34 35 35 36 37 37 37 36 36 35 34 35 38 41 43 44 45 46 47 47 47 47 46 45 43 41 39 39 40 41 42 44 45 46 46 47 47 47 47
28 28 29 29 30 30 30 30 30 30 30 30 30 30 30 30 30 30 30 30 31 31 32 32 33 33 33 34 34 35 35 36 36 37 38 39 39 39 39 39 39 40 41 43 46 47 47 47 48 47 47 47 47 45 43 41 40 40 40 42 43 45 46 47 48 48 48 48 48
29 29 30 30 31 31 31 31 30 30 30 30 30 30 30 31 31 31 31 31 32 33 33 33 34 34 35 36 36 37 38 37 37 37 38 39 40 41 43 43 43 44 44 45 47 48 47 47 47 47 47 47 46 45 44 42 41 40 41 43 44 46 47 47 48 49 50 50 50
30 30 31 31 32 32 32 32 31 31 31 31 31 31 31 32 32 32 33 33 34 34 34 35 35 35 36 38 38 39 39 39 38 38 38 38 39 41 43 44 44 44 44 45 45 45 45 45 46 46 46 46 46 45 44 43 42 41 42 43 44 46 47 48 49 49 50 51 52
31 31 32 32 33 33 33 32 32 32 32 32 32 33 33 33 33 34 34 34 34 34 35 36 36 37 38 39 39 39 39 39 39 38 38 38 39 41 42 43 43 43 43 43 43 42 43 44 45 46 46 46 46 45 44 43 42 42 42 43 44 46 47 48 49 50 51 52 53
32 33 33 33 33 33 33 33 33 33 33 34 34 34 34 34 35 35 35 35 35 36 36 37 37 38 38 39 40 40 40 39 38 39 39 40 40 41 41 43 43 43 43 42 42 41 42 43 45 46 46 46 46 45 44 44 43 43 43 43 44 45 46 48 49 50 51 52 54
33 34 34 34 34 34 34 34 34 34 34 35 35 35 35 35 36 36 37 37 37 37 37 38 38 38 38 39 40 40 40 39 40 41 41 41 41 41 41 42 43 43 43 43 43 42 42 43 45 45 45 45 45 45 44 44 43 43 43 44 44 45 46 47 49 50 51 52 54
34 35 35 35 35 35 35 35 35 35 35 36 36 36 36 37 37 38 38 38 38 38 38 38 38 38 39 40 41 41 41 41 41 42 42 42 41 40 41 42 43 43 43 43 43 43 43 44 45 46 46 45 45 45 44 44 43 43 43 43 44 44 45 46 48 49 51 52 54
35 35 35 35 35 35 36 36 36 36 36 36 37 37 37 38 38 38 39 39 39 38 39 39 39 39 39 40 41 42 42 42 42 43 43 43 41 40 40 41 42 42 42 41 42 42 43 44 46 46 46 46 45 44 44 43 43 43 43 43 43 44 45 46 47 49 50 51 53
36 36 36 36 36 36 36 36 36 37 37 37 38 38 38 38 38 39 39 39 39 38 39 39 40 40 40 41 42 43 43 44 45 45 44 43 42 41 40 40 41 42 42 41 41 42 42 44 46 47 46 45 44 44 43 43 42 42 42 43 43 43 44 45 47 48 49 50 52
37 37 37 37 37 36 36 37 37 37 38 38 38 38 38 38 38 39 39 39 39 39 39 40 40 40 41 43 44 45 45 46 47 46 46 45 44 42 40 40 42 44 44 43 42 41 41 43 45 46 46 45 44 43 42 42 41 41 42 42 42 43 43 44 45 47 48 49 50
38 38 38 37 37 37 37 37 37 37 38 38 38 38 38 38 38 38 39 39 39 39 40 40 41 41 42 44 44 45 46 47 47 47 47 46 45 43 41 40 42 43 45 44 43 41 41 43 45 46 46 44 44 43 42 42 41 41 42 42 43 43 43 44 44 45 46 47 48
39 38 38 38 37 37 37 37 37 37 38 38 38 38 38 38 38 38 38 39 39 40 40 41 42 43 44 45 45 45 46 46 47 47 47 47 45 43 41 40 41 42 43 43 42 42 43 45 47 48 47 45 44 43 42 42 42 42 42 42 43 43 43 43 43 44 45 46 46
39 39 38 38 38 37 37 37 38 38 38 38 38 38 38 38 38 38 38 39 39 40 41 41 42 43 44 45 46 46 46 46 46 47 47 47 45 43 41 40 40 40 40 41 41 42 43 46 49 50 49 47 45 44 43 42 42 42 42 43 44 44 44 44 43 43 44 44 43
39 39 38 38 38 38 38 38 38 39 39 39 38 38 38 37 37 38 38 38 39 40 41 42 43 44 44 44 45 45 46 46 46 47 46 45 44 42 41 40 40 40 39 39 39 41 43 47 50 51 50 48 46 45 44 43 43 43 43 43 44 45 45 45 44 44 43 42 41
39 39 39 39 39 39 39 39 39 39 39 38 38 38 37 37 37 37 38 39 40 42 43 44 44 44 43 44 44 44 45 46 46 46 45 44 42 41 41 41 41 40 39 38 38 40 43 48 50 51 49 48 46 45 45 44 44 44 44 44 44 45 45 45 45 44 43 42 41
39 39 39 39 39 39 39 39 39 38 38 38 37 37 37 36 37 37 38 40 42 43 44 44 44 43 43 44 45 46 46 47 48 47 46 45 43 42 42 41 41 41 39 38 38 40 44 48 50 50 49 48 47 46 46 46 46 45 45 44 45 45 45 45 45 44 43 43 42
40 40 39 39 39 39 39 39 38 38 37 37 36 36 36 36 37 38 40 41 42 43 43 43 43 43 44 45 46 47 48 49 48 48 47 46 44 43 41 41 41 40 39 37 38 40 43 47 48 48 48 48 47 47 47 47 47 46 46 45 45 45 45 45 45 45 44 43 43
40 39 39 39 39 39 38 37 37 36 36 35 35 35 36 37 38 39 40 41 42 42 43 43 43 43 45 46 47 48 49 49 48 47 46 45 43 42 41 41 40 39 37 37 37 39 43 46 47 48 47 47 47 47 47 47 47 46 45 45 45 45 45 45 45 45 45 44 43
39 39 39 38 38 37 36 36 35 35 35 35 36 36 37 38 39 40 40 41 42 42 42 43 44 45 46 47 48 48 49 49 48 47 45 43 42 41 41 40 38 37 36 36 37 39 42 45 47 47 46 46 46 46 46 46 46 46 45 44 44 44 44 44 44 44 44 44 44
38 38 37 37 36 35 35 35 35 36 36 37 38 38 38 39 40 41 42 42 42 42 42 43 44 45 46 47 48 48 49 48 47 46 44 42 41 40 39 38 37 36 35 35 36 40 44 46 46 46 45 44 44 45 45 45 45 44 43 42 42 42 42 43 44 44 44 44 44
37 36 36 35 35 35 35 36 37 38 38 39 40 40 40 41 41 42 43 43 42 42 42 42 43 44 45 46 47 48 48 48 46 45 42 40 39 38 37 36 35 35 34 34 37 42 45 46 46 45 44 44 44 44 44 44 44 42 41 40 39 40 41 43 44 44 44 44 44
35 35 35 35 35 36 37 38 39 39 40 41 42 43 42 42 42 42 43 43 42 42 42 43 43 44 45 46 47 47 47 47 46 43 41 39 37 36 36 36 35 34 34 35 40 44 46 46 45 44 44 44 44 44 44 44 42 41 39 38 37 38 40 42 43 44 44 44 45
34 34 35 36 37 38 38 39 40 40 41 42 43 44 44 43 43 43 42 42 42 42 42 43 43 44 45 46 47 47 46 45 44 42 40 39 37 37 37 36 35 33 34 38 42 44 45 45 45 45 45 44 44 44 44 43 42 40 38 37 36 37 39 41 42 43 44 44 45
34 35 36 37 38 38 39 39 40 41 41 42 43 43 43 42 42 42 42 41 41 41 42 43 44 45 46 47 46 45 44 43 42 41 40 38 37 36 36 35 33 33 36 39 42 43 44 45 46 46 45 45 44 44 43 42 41 39 37 36 36 37 38 40 41 42 42 43 44
35 35 36 37 38 38 39 39 40 40 41 42 42 42 42 41 41 41 40 40 40 41 43 45 46 46 46 45 44 43 41 40 41 41 40 38 36 34 33 33 33 35 38 40 40 42 44 46 47 47 46 45 45 44 43 41 40 38 37 36 36 36 37 38 39 40 41 42 42
36 36 36 36 37 38 39 39 40 40 41 41 41 41 41 41 40 40 40 40 41 42 44 45 46 45 44 42 42 41 41 40 40 41 40 37 34 32 32 33 34 36 38 39 40 42 45 48 48 47 46 46 45 44 43 41 39 38 37 37 36 35 35 35 36 37 39 40 40
36 36 36 36 37 38 39 39 40 40 40 41 41 41 41 41 41 41 41 41 41 42 43 44 44 43 42 41 41 42 42 41 41 40 38 35 32 31 32 34 36 37 38 39 41 44 48 49 48 47 46 46 45 44 43 41 39 38 37 36 35 34 33 33 34 35 37 38 38
36 36 37 37 38 38 39 40 41 41 41 41 41 41 41 41 41 41 41 41 41 41 42 43 43 42 41 40 41 41 42 42 41 39 36 32 31 31 34 36 37 38 39 40 44 47 50 50 48 47 47 46 45 44 43 41 40 38 37 36 35 34 33 33 34 35 36 36 37
Wind_Direction
309 308 307 307 307 308 307 306 305 305 303 302 301 300 299 298 297 296 295 294 293 292 291 290 290 291 292 292 291 290 290 291 290 289 287 285 283 281 278 276 275 274 274 275 275 273 271 269 269 268 267 264 260 256 254 251 249 248 247 244 241 238 233 229 226 223 221 220 219
306 305 306 307 308 308 307 306 305 303 302 301 300 299 298 297 296 295 294 293 292 291 290 289 289 289 291 293 293 292 290 289 288 287 286 285 285 284 283 282 279 277 275 274 275 275 275 273 270 270 269 268 265 261 258 254 251 249 247 244 240 235 232 229 226 223 221 219 217
305 305 307 308 308 307 305 304 302 301 301 300 299 298 298 297 296 295 294 293 292 291 291 290 289 289 290 291 293 292 291 289 288 287 285 284 284 284 285 284 284 282 280 278 276 276 276 275 273 270 268 267 266 264 262 258 254 250 246 244 240 236 233 232 229 225 221 218 216
306 307 307 307 306 305 303 302 301 300 300 299 299 298 297 297 297 296 295 294 293 292 291 290 290 290 290 290 291 290 289 288 288 287 287 286 285 284 284 285 285 285 284 282 280 278 276 276 275 273 269 267 266 265 263 261 256 251 247 244 242 239 236 235 232 228 223 218 215
307 308 308 307 306 304 303 302 301 300 299 299 298 298 298 298 297 297 296 295 294 293 292 291 290 289 289 289 290 288 287 285 284 285 285 286 286 286 286 285 286 286 285 284 282 280 278 277 277 276 273 269 266 265 264 263 259 254 250 247 244 241 238 236 233 229 224 219 216
308 308 307 306 305 304 303 302 301 300 299 299 298 298 297 297 297 296 296 295 295 294 293 292 290 289 289 289 289 289 287 285 282 281 281 283 284 285 286 287 287 287 286 285 283 281 279 279 279 278 276 273 270 267 266 265 263 260 255 251 247 243 240 235 232 229 226 222 219
308 308 307 306 305 304 303 302 301 300 299 298 298 297 297 296 296 296 296 296 296 296 295 294 293 292 291 291 291 291 290 288 285 282 279 278 278 280 284 286 287 288 287 287 285 283 281 280 279 279 278 276 274 270 268 267 267 266 262 257 251 246 241 236 232 230 229 226 222
308 307 307 306 305 304 303 302 301 300 299 298 297 296 296 296 296 296 296 297 297 297 297 296 295 295 294 294 293 293 293 291 289 285 282 278 276 277 280 283 285 286 287 287 287 286 283 281 280 279 278 278 276 274 271 269 268 268 267 264 258 249 242 236 233 231 230 228 224
308 307 306 305 304 303 302 302 301 300 299 298 297 296 296 296 296 296 296 296 296 296 296 296 295 295 294 293 292 292 293 293 293 291 287 284 281 279 279 280 282 284 285 287 288 287 285 282 280 279 279 279 278 278 276 274 271 269 269 268 263 254 244 236 233 231 230 228 225
307 307 306 305 304 303 303 302 300 299 298 297 296 296 296 295 295 295 295 295 295 295 294 294 294 293 292 290 289 289 290 292 294 294 292 289 286 283 281 280 281 282 283 285 285 285 282 279 277 277 278 279 279 280 281 279 276 272 269 267 262 255 245 238 234 231 229 227 226
306 306 305 305 304 303 302 301 300 299 298 297 296 295 295 295 294 294 294 294 293 293 293 293 292 291 289 288 286 286 287 289 290 292 291 290 288 286 284 282 280 281 281 282 282 280 278 274 273 274 275 277 279 281 282 281 279 275 270 265 258 252 245 239 234 231 228 227 225
306 305 305 304 303 303 302 300 299 298 297 296 295 295 294 294 293 293 293 292 292 292 292 292 291 290 289 288 287 286 286 285 285 286 286 286 286 285 284 282 280 280 280 280 280 279 275 271 270 270 273 275 278 280 281 281 279 276 269 261 257 252 245 238 232 229 227 227 225
305 304 304 303 303 302 301 300 299 298 296 295 294 294 293 293 292 292 292 292 291 291 291 291 290 290 290 290 289 289 287 285 284 283 282 282 282 281 281 280 280 279 279 280 280 278 274 269 266 267 270 273 276 278 279 279 278 274 268 260 254 250 245 237 231 227 226 226 224
304 304 303 302 302 301 300 299 298 297 296 295 294 293 292 292 292 292 291 291 290 290 290 290 290 290 290 290 291 290 290 288 286 284 282 281 280 279 278 278 278 278 278 279 279 277 272 266 263 263 266 270 273 275 277 277 275 272 266 261 254 249 244 237 231 228 225 222 221
304 303 302 302 301 300 299 298 298 297 295 294 293 293 292 291 291 291 291 290 289 289 289 289 289 289 289 290 290 291 291 290 289 287 285 283 281 280 279 277 277 276 276 276 276 273 267 261 259 261 264 267 270 272 273 274 273 270 265 259 254 249 244 238 232 228 224 221 217
303 302 302 301 300 299 298 298 297 296 295 294 293 292 292 291 290 290 289 289 289 289 288 288 288 289 289 290 290 291 291 291 291 289 288 286 284 282 281 279 278 277 275 274 272 267 261 257 257 259 262 265 267 268 269 269 269 266 261 255 250 246 242 238 234 229 224 220 216
302 302 301 300 299 298 297 296 296 295 294 293 293 292 291 290 290 289 289 288 288 288 288 288 288 288 289 289 290 291 291 292 291 290 289 287 285 283 282 280 279 278 276 274 271 265 258 255 255 257 259 262 264 265 265 265 264 261 256 251 246 242 239 236 233 229 225 220 215
302 301 301 300 299 298 297 296 295 294 293 293 292 292 291 290 289 289 288 288 288 288 288 287 288 288 288 288 289 290 291 291 291 291 290 289 287 284 281 279 279 278 276 275 272 265 258 254 253 254 256 258 260 261 261 260 259 255 251 246 241 237 234 232 230 227 224 219 214
301 301 300 299 298 297 296 295 294 294 293 293 292 291 291 290 289 289 289 288 288 288 288 287 287 287 287 287 288 289 289 290 290 291 291 290 288 284 280 279 278 277 276 274 272 266 259 253 251 251 253 254 255 256 256 255 253 250 245 241 236 233 230 227 224 222 220 218 214
300 300 299 298 298 297 296 295 294 293 293 292 292 291 290 290 289 289 289 289 288 288 288 287 287 287 286 287 288 288 289 289 290 290 291 291 288 284 280 278 277 277 276 274 272 266 259 251 248 248 249 250 250 251 250 249 247 243 239 235 232 229 226 223 220 217 215 213 211
300 299 299 298 297 296 295 295 294 293 293 292 292 291 291 290 290 289 289 289 289 289 288 287 287 286 286 287 287 288 288 288 289 290 291 291 289 284 280 277 277 277 277 275 272 266 258 250 246 245 246 246 246 246 245 243 240 237 233 230 227 225 222 219 216 212 210 208 207
299 299 298 297 297 296 295 294 294 293 293 292 292 291 291 291 290 290 290 290 289 289 288 287 286 286 286 286 287 287 288 289 289 290 291 291 289 286 281 278 278 278 277 275 273 267 257 248 243 242 242 242 241 241 240 237 234 230 227 224 222 220 217 215 212 209 206 204 202
299 298 297 297 296 295 295 294 294 294 293 292 292 292 291 291 290 290 290 290 289 288 288 287 286 286 286 286 286 287 288 289 290 290 291 291 290 287 283 279 277 276 275 272 270 265 256 246 241 239 238 237 237 236 234 231 228 225 222 219 217 215 212 210 208 206 203 201 199
298 297 297 296 296 295 295 295 294 294 293 293 292 292 291 291 291 290 290 289 289 288 287 287 286 286 286 286 286 287 288 288 289 290 291 291 290 287 283 278 275 274 273 270 268 263 255 245 239 236 235 233 232 231 229 226 223 220 217 215 212 210 208 206 204 202 200 199 197
297 297 296 295 295 295 294 294 294 294 293 293 292 292 291 291 291 290 290 289 288 287 286 286 285 285 285 286 286 287 287 288 288 289 291 291 290 288 283 279 276 274 272 270 268 263 256 247 240 236 232 230 228 226 224 221 218 216 214 211 209 207 204 202 200 198 197 197 196
297 297 296 296 295 295 294 294 294 293 293 293 292 292 291 291 291 290 289 289 288 287 286 285 285 285 285 286 286 287 287 288 288 290 291 292 291 289 285 282 279 277 275 272 269 265 258 248 241 235 231 227 224 221 219 216 214 212 210 209 207 204 201 198 196 195 194 194 193
297 297 296 296 295 295 294 294 294 293 293 292 292 292 291 291 291 290 289 288 287 286 286 285 285 286 286 287 287 287 287 288 289 290 291 290 289 287 284 281 279 278 277 275 271 266 258 248 239 233 228 224 220 217 214 211 209 207 206 205 203 201 199 196 193 191 191 190 190
297 297 296 296 296 295 295 294 294 293 293 292 292 292 291 291 291 290 289 288 287 287 286 286 287 288 288 287 287 287 287 288 289 289 289 288 285 282 279 277 275 275 276 276 272 265 255 245 235 228 223 219 216 213 210 206 204 202 200 199 198 197 196 194 192 189 188 186 186
298 297 297 296 296 295 295 294 294 293 293 292 292 292 291 291 290 289 288 288 287 287 287 287 288 288 288 288 287 288 288 289 289 289 288 286 283 279 276 274 273 274 275 275 271 262 250 238 229 222 218 215 212 208 205 201 199 197 195 194 193 193 192 190 188 187 185 184 183
298 298 298 297 297 296 296 295 294 294 293 293 292 292 292 291 290 289 288 288 288 288 288 288 288 288 288 287 287 288 288 289 289 289 288 286 283 279 276 274 273 273 274 274 268 256 242 230 222 216 213 210 207 203 199 196 194 192 191 190 189 189 188 186 185 183 182 182 181
299 299 298 298 297 297 296 296 295 295 294 294 293 293 292 291 290 289 289 289 289 289 289 289 288 288 288 288 288 288 289 290 290 289 288 286 284 281 279 276 274 273 273 271 262 247 232 221 215 212 209 205 201 197 194 192 190 189 187 186 186 185 184 182 181 181 180 180 179
300 300 300 299 299 298 298 297 296 296 295 294 294 293 292 291 290 290 290 289 289 289 289 289 288 288 288 288 288 289 289 290 290 289 288 286 284 282 280 278 276 275 273 267 253 236 222 214 211 208 204 199 194 191 188 187 186 185 184 183 182 181 179 178 178 178 178 177 177
302 302 301 301 300 300 299 298 297 296 296 295 294 293 293 292 291 290 290 290 290 289 289 288 288 288 288 288 289 289 290 290 289 289 288 286 284 282 280 278 277 275 271 260 242 225 215 210 207 203 198 192 188 186 184 183 183 181 180 178 176 175 175 175 175 175 174 174 174
304 304 304 303 302 301 300 299 298 297 296 295 294 293 293 292 291 291 291 291 290 290 289 289 288 288 288 288 289 289 290 290 289 289 288 287 285 283 281 280 279 275 265 248 229 217 210 207 203 197 191 187 184 181 180 179 178 176 173 170 169 169 171 172 172 172 172 171 171
306 305 305 304 303 302 301 300 299 298 297 296 294 294 293 293 292 292 292 292 292 291 291 290 289 289 289 289 290 290 289 290 290 290 289 288 286 286 285 283 278 268 252 233 219 211 207 203 197 190 186 183 180 178 177 175 173 170 166 165 165 167 168 169 169 169 169 170 170
306 306 305 304 303 302 302 301 300 298 297 296 295 294 294 294 294 294 294 294 293 292 291 290 290 289 289 290 290 290 290 290 290 290 290 289 289 289 287 282 271 254 235 220 212 207 202 197 190 185 181 179 177 176 174 171 168 165 163 163 164 166 167 167 167 167 168 169 170
307 306 306 304 304 303 302 301 300 299 297 296 296 295 295 295 295 295 295 294 293 292 291 290 290 290 291 291 292 293 293 292 292 292 292 292 291 289 283 272 256 237 221 211 206 202 197 190 185 181 178 176 174 172 170 167 164 163 162 163 164 165 166 166 166 167 169 170 171
307 306 306 305 304 303 302 301 300 299 298 297 297 296 296 296 295 295 295 294 292 291 291 291 292 293 294 295 295 296 295 295 295 295 295 295 291 283 272 256 238 222 211 205 201 197 191 185 180 178 176 174 172 169 166 163 162 161 162 163 164 165 166 165 166 168 170 172 173
307 307 306 306 304 303 302 302 301 299 299 298 298 297 297 296 295 295 294 294 292 292 292 293 295 296 297 298 298 298 299 299 299 299 297 293 285 272 257 240 223 211 203 200 197 191 185 180 177 175 174 172 170 167 164 161 160 161 162 163 163 163 164 165 167 170 173 176 176
308 307 307 306 305 304 303 302 301 300 299 298 298 297 297 296 296 295 295 295 294 294 295 296 297 298 299 299 300 300 301 301 301 300 296 287 273 258 243 227 212 202 197 194 190 185 180 176 173 171 170 169 167 164 162 160 159 159 160 160 160 160 161 164 168 172 176 179 181
309 308 308 307 306 305 304 303 302 301 300 299 298 298 298 298 298 297 297 297 296 297 297 298 299 300 300 301 301 302 303 303 302 298 290 276 261 245 230 216 204 196 190 186 183 178 174 171 169 168 167 166 164 162 160 158 157 157 157 157 157 157 159 164 169 174 178 181 184